Tracking 18840 objects as of 18-November-2017
HD Live streaming from Space Station
objects crossing your sky now

COSMOS 2407

Track COSMOS 2407 now!
10-day predictions
COSMOS 2407 is classified as:


NORAD ID: 28380
Int'l Code: 2004-028A
Perigee: 955.5 km
Apogee: 1,014.6 km
Inclination: 83.0 °
Period: 104.6 minutes
Semi major axis: 7356 km
RCS: 1.9044 m2 (large)
Launch date: July 22, 2004
Source: Commonwealth of Independent States (former USSR) (CIS)
Launch site: PLESETSK MISSILE AND SPACE COMPLEX (PKMTR)

Normally part of a six-satellite constellation.
aabbcc
Your satellite tracking list
Your tracking list is empty




NASA's NSSDC Master Catalog

Two Line Element Set (TLE):
1 28380U 04028A   17322.21684313  .00000016  00000-0  11965-5 0  9992
2 28380  82.9621 234.2964 0040151  14.9751 345.2585 13.76046643669181
Source of the keplerian elements: AFSPC